GFSMW_con_mlcape_093.txt.gz
CAPE
0 0 0 0 0 0 0 26 640 2048 1623 1311 1024 1118 1201 942 757 467 342 385 215 71 31 41 77 37 0 24 12 10 23 37 137 65 35 41 44 30 14 19 11 13 21
0 0 0 0 0 0 0 39 459 1365 1448 1086 1249 1413 1111 972 611 446 199 162 110 43 13 26 29 7 3 6 3 7 15 32 88 39 29 34 22 36 26 15 12 18 18
0 0 0 0 0 0 0 16 369 1078 1377 1399 1409 1288 1015 473 314 228 233 119 36 10 22 25 20 3 2 2 4 11 13 24 27 18 1 17 17 15 5 24 11 20 14
0 0 0 0 0 0 0 61 340 1136 1078 1321 1283 1231 650 461 421 326 149 12 4 3 9 18 10 3 2 2 2 18 20 21 37 18 30 0 1 4 12 7 15 16 20
0 0 0 0 0 0 0 157 420 996 1052 1354 1191 1123 870 730 424 233 183 14 3 7 16 3 7 9 2 3 11 17 25 29 54 33 14 8 27 26 19 8 24 21 13
1 0 0 0 0 0 72 379 602 875 994 1141 1103 1046 827 592 225 342 257 27 5 3 11 8 7 9 5 4 4 17 28 43 79 74 53 50 40 61 40 50 33 34 30
15 2 0 0 0 0 266 643 652 859 941 950 934 852 617 365 239 208 173 2 1 2 12 2 2 9 2 4 21 34 55 96 92 87 57 74 92 87 69 51 75 85 55
15 79 25 53 42 110 596 262 694 780 880 874 788 523 380 226 208 222 4 1 0 0 1 10 4 12 9 3 15 51 73 63 68 67 53 58 109 108 104 61 72 48 47
0 217 124 108 333 569 78 110 682 793 721 625 524 284 226 161 212 46 1 1 2 1 1 1 5 5 2 4 23 32 51 41 56 58 60 74 69 100 158 144 76 74 25
0 0 272 132 571 424 15 62 511 650 428 305 258 176 137 127 88 6 2 1 2 2 2 2 2 2 1 1 10 3 12 22 31 39 70 40 75 69 77 94 101 85 60
0 1 1 378 659 521 59 46 289 469 301 192 60 71 51 34 44 15 2 1 1 2 2 2 2 1 1 1 1 1 1 1 0 1 15 16 55 61 72 48 51 40 45
0 1 1 2 342 246 84 23 263 216 72 83 12 22 34 20 9 9 1 2 2 2 1 1 0 1 0 0 0 0 0 0 0 0 0 0 27 21 17 35 28 16 10
0 0 2 1 7 9 6 5 13 11 23 2 3 33 37 17 2 2 2 3 2 2 2 2 2 0 0 0 0 0 0 0 0 0 0 0 9 16 12 0 0 0 0
0 1 3 3 1 2 4 6 1 1 12 3 1 15 60 62 20 33 21 0 3 3 3 3 2 2 2 0 0 0 0 0 0 0 0 3 6 0 0 0 0 0 0
0 4 4 4 5 1 2 6 4 1 4 5 4 6 35 35 66 43 22 21 19 3 3 4 3 2 1 2 0 1 1 1 0 0 0 0 3 0 0 0 0 0 1
3 6 5 4 7 7 3 4 2 1 20 9 9 5 17 12 14 25 15 4 9 14 20 20 18 8 0 0 0 0 2 2 3 1 0 2 0 0 0 0 0 1 7
5 6 5 5 6 6 5 4 4 3 0 0 0 0 0 0 0 4 8 11 1 1 0 0 0 0 2 5 0 0 0 5 0 0 0 1 0 0 0 0 1 6 11
4 5 4 3 2 4 3 3 3 4 4 6 5 4 3 2 3 4 3 5 3 4 4 7 5 5 8 1 0 0 0 0 2 5 6 3 4 4 2 3 2 10 7
3 1 1 1 3 2 2 2 4 6 4 10 9 8 8 7 6 9 12 15 9 9 13 13 12 8 8 2 0 0 0 5 11 11 10 4 5 4 0 1 2 8 5
2 1 1 2 1 1 2 2 2 4 7 6 4 4 4 7 8 8 8 8 8 9 7 6 6 7 6 5 2 2 4 6 8 5 5 7 4 0 0 1 2 4 7
1 1 0 2 1 1 2 2 2 2 1 1 1 2 3 3 3 5 5 4 6 4 5 5 4 4 4 6 5 2 2 3 3 5 4 2 4 6 2 0 2 3 1
1 1 1 1 1 0 2 2 0 1 0 0 1 2 1 1 0 2 0 0 1 2 2 3 4 2 3 3 2 2 1 2 5 7 2 2 2 3 2 2 0 0 0
1 1 1 1 1 1 0 1 0 0 0 1 1 2 2 1 1 1 1 0 0 2 2 2 3 2 2 1 2 2 1 1 2 1 1 0 0 1 0 0 0 0 0
2 1 1 2 1 0 1 0 0 0 1 0 2 2 2 2 1 1 1 1 2 1 1 1 2 1 2 1 1 2 1 0 0 1 0 0 0 0 0 0 0 0 0
1 0 1 1 0 0 0 0 0 1 0 0 0 0 0 1 3 2 2 2 2 1 1 1 0 1 3 1 1 0 0 0 0 1 0 0 0 0 0 0 0 0 0
0 0 0 0 0 0 0 0 0 0 0 0 0 0 1 1 0 0 2 0 0 0 0 0 1 1 1 1 0 0 0 0 0 0 0 0 0 0 0 0 0 0 0

GFSMW_con_mlcape_099.txt.gz
CAPE
0 0 0 0 0 0 0 0 982 1964 2157 2107 1885 1694 1431 1364 1370 1127 1087 1220 1293 1112 919 758 605 434 307 108 42 34 48 38 30 1 22 14 2 0 0 0 0 0 0
0 0 0 0 0 0 0 0 1390 1989 2092 2073 1758 1532 1281 1188 1099 1260 1088 1052 879 917 779 589 463 348 194 79 23 14 31 27 5 2 11 19 0 0 0 0 0 0 0
0 0 0 0 0 0 0 0 1553 1927 2035 1851 1433 1212 1065 986 989 902 1071 945 853 656 540 449 323 258 171 88 40 9 23 9 11 12 0 0 0 5 5 0 0 0 0
0 0 0 0 0 0 0 1 1568 1955 1827 1576 1395 1123 954 932 877 814 686 690 693 592 461 361 260 175 143 64 37 1 10 17 7 26 1 0 0 0 1 4 3 1 0
23 45 0 0 0 0 0 28 1377 1724 1663 1395 1211 1043 892 764 705 630 532 540 463 441 309 261 186 122 61 14 20 8 3 4 7 5 3 0 0 0 0 0 5 6 0
19 38 1 0 0 0 0 0 1098 1645 1576 1164 1028 935 914 847 598 448 447 387 293 224 180 143 96 92 49 22 12 10 2 6 2 3 0 0 0 0 0 0 0 0 0
1 4 7 10 3 1 0 0 12 1516 1441 1091 1060 999 881 801 681 598 490 368 254 164 137 105 89 68 19 15 19 9 13 6 0 0 0 0 0 1 1 0 0 0 0
0 0 0 0 1 113 6 0 126 908 1154 1110 1178 1183 1111 1010 802 593 485 382 228 97 48 38 8 28 12 16 14 23 22 9 1 3 0 0 0 9 23 0 0 0 0
0 0 0 0 0 34 68 174 371 889 1091 1189 1181 1131 1208 1086 750 551 473 295 203 141 76 14 12 6 9 8 21 10 10 9 1 2 1 2 0 69 62 41 14 7 0
0 0 0 1 0 1 0 11 122 281 843 991 921 988 932 538 357 263 223 125 45 15 0 2 4 6 2 1 5 6 2 18 3 0 5 5 22 54 75 37 28 11 7
0 1 1 3 4 2 1 0 0 66 432 768 608 486 330 231 223 152 55 20 0 0 0 0 0 3 5 2 10 2 12 16 1 2 4 7 20 32 57 32 42 46 17
0 0 1 3 1 1 1 0 1 28 170 231 348 243 152 171 133 65 1 0 0 0 0 2 1 2 1 6 19 1 6 3 6 2 5 5 18 28 49 32 17 29 41
0 0 0 5 4 4 2 3 1 4 15 82 107 77 54 90 66 57 0 0 0 1 1 1 0 0 0 2 6 16 1 4 4 0 8 8 4 27 41 43 67 52 28
1 1 1 4 4 5 3 4 2 6 2 5 25 7 1 34 55 8 0 0 1 1 1 0 0 0 0 0 1 0 1 0 0 1 1 6 10 35 49 59 51 44 11
3 4 5 4 5 6 5 3 2 5 5 0 1 2 5 10 5 2 0 0 1 1 1 1 0 0 0 0 1 1 1 0 0 0 2 0 0 0 4 11 12 9 13
4 5 4 4 5 4 5 5 3 3 3 4 0 0 9 16 13 37 29 4 1 1 1 1 1 0 0 0 0 0 0 0 0 0 0 0 0 0 0 0 0 0 3
5 5 3 3 3 3 3 4 3 0 2 6 7 3 0 0 0 0 0 1 2 1 2 3 2 1 2 1 0 0 0 0 0 0 0 0 0 0 0 0 0 0 1
3 2 1 2 2 2 2 2 3 0 2 3 6 8 3 2 8 6 4 4 6 6 7 6 6 4 3 1 0 0 1 1 3 3 2 1 1 2 0 0 1 11 8
1 2 2 1 1 2 2 3 4 4 0 1 5 5 7 11 11 10 13 13 12 11 11 10 8 7 6 3 6 2 6 6 8 8 5 4 3 4 2 2 5 11 11
1 2 1 1 1 1 1 1 2 3 3 4 0 1 3 5 8 8 8 7 7 8 7 6 5 5 8 5 3 4 6 7 9 5 4 1 2 3 2 3 3 5 5
0 0 0 1 1 0 0 1 1 1 2 1 3 1 0 0 2 4 3 3 3 3 4 6 4 4 4 5 4 4 6 7 7 8 7 4 2 2 2 1 1 4 2
1 0 0 1 1 0 0 1 1 1 2 2 2 2 2 2 1 1 1 2 1 2 2 3 3 2 2 3 5 4 3 2 5 5 2 2 2 1 1 1 1 0 1
0 0 0 1 1 1 0 0 0 0 1 1 1 0 0 1 1 2 2 0 0 0 1 1 1 0 1 1 2 2 2 1 2 1 2 2 2 1 0 0 0 0 0
0 0 1 1 0 0 1 0 0 0 0 0 0 1 2 1 1 0 1 1 1 2 1 0 0 0 0 0 0 0 0 0 0 0 1 0 0 0 0 0 0 0 0
0 0 0 0 0 0 0 0 0 0 0 0 0 0 1 1 1 0 0 0 0 0 0 0 0 0 1 0 0 0 0 0 0 0 0 0 0 0 0 0 0 0 0
0 0 0 0 0 0 0 0 0 0 0 0 0 0 0 0 0 0 0 1 1 1 1 1 0 0 0 1 0 0 0 0 0 0 0 0 0 0 0 0 0 0 0

GFSMW_con_mlcape_102.txt.gz
CAPE
0 0 0 0 0 0 0 0 5 551 1621 2031 1784 1583 1381 1602 1591 1525 1448 1326 1068 916 838 686 613 611 590 429 305 157 61 16 17 44 3 10 0 6 2 0 0 0 0
0 0 0 0 0 0 0 0 2 253 1310 1617 1724 1572 1529 1399 1348 1368 1436 1394 1218 983 824 747 650 623 524 368 242 122 77 43 56 44 33 3 4 0 2 0 0 0 0
0 0 0 0 0 0 0 0 0 344 987 1600 1851 1494 1227 983 1138 1138 1136 1134 1139 952 788 690 652 508 417 272 165 109 54 9 16 14 6 2 1 1 0 0 0 0 0
0 0 0 0 0 0 0 0 0 396 1349 2015 1735 1573 1345 1217 1268 1139 952 840 763 691 739 687 523 450 322 207 159 118 48 5 9 3 1 0 0 0 0 0 0 0 0
0 1 12 12 0 0 0 0 65 1299 1546 1697 1703 1569 1340 1098 948 915 866 833 823 748 583 576 483 412 304 208 140 87 25 2 4 3 2 0 0 0 0 1 1 0 0
0 0 0 0 0 1 7 16 1154 1417 1730 1707 1642 1557 1245 1025 901 829 703 688 718 635 586 465 401 303 243 194 127 58 22 25 1 6 1 0 0 0 0 0 0 0 0
0 0 0 0 0 0 6 0 1275 1629 1691 1656 1483 1370 1073 829 771 665 575 474 375 406 463 432 351 266 191 142 78 37 4 17 12 1 2 0 0 0 0 0 1 0 0
0 2 3 3 2 1 0 0 1092 1552 1552 1275 1281 1052 879 732 644 461 332 341 313 291 288 268 211 165 137 101 43 18 16 14 8 1 2 0 0 0 0 0 0 0 0
1 0 1 3 2 4 3 3 8 710 1234 1005 947 795 728 755 621 430 357 329 277 265 200 137 97 118 99 84 31 19 20 24 18 1 2 0 0 0 0 0 2 5 2
0 0 1 2 4 4 4 2 2 1 329 688 705 698 812 668 571 517 468 342 233 203 102 38 57 83 54 22 25 18 33 16 7 4 2 1 0 0 0 0 10 19 9
3 1 0 2 3 1 3 3 0 2 0 316 419 505 571 586 528 389 207 236 189 137 45 22 23 36 22 10 17 32 17 19 9 3 1 1 0 0 0 4 19 17 12
2 1 1 2 1 4 0 5 1 2 4 1 48 201 259 260 107 79 41 8 8 0 0 0 0 0 0 3 9 6 1 1 17 1 4 3 1 0 3 14 24 20 3
0 2 3 2 5 5 4 4 2 2 6 1 16 80 75 69 20 2 0 1 0 0 0 1 0 1 1 2 2 3 2 13 4 14 3 1 1 1 8 4 12 16 0
2 4 4 4 4 4 6 5 5 5 4 6 4 26 29 23 20 0 0 0 0 0 0 0 1 0 0 0 3 8 19 13 1 3 3 1 1 2 2 5 1 0 0
3 3 3 3 3 5 6 5 5 5 5 9 1 0 2 5 0 1 0 0 0 1 2 0 0 1 0 0 0 0 5 12 8 7 4 1 1 0 2 3 8 12 0
4 3 3 3 4 4 5 5 5 5 4 6 8 5 1 4 4 2 4 2 0 0 0 0 0 0 0 0 0 0 0 2 0 1 1 0 0 0 0 0 0 0 0
4 4 2 2 3 3 3 5 4 3 4 1 5 7 7 5 2 0 0 1 2 2 2 3 3 2 1 0 0 0 0 0 0 0 1 0 0 0 0 0 0 0 0
2 1 1 1 1 2 2 2 3 3 5 4 0 5 4 7 6 10 7 7 7 7 8 7 8 6 8 4 1 0 0 0 1 1 0 0 0 0 0 1 2 7 7
1 1 1 1 1 2 2 1 0 2 4 5 6 1 2 4 6 7 13 12 10 10 11 11 8 8 10 3 7 1 2 3 9 6 5 3 2 4 2 1 4 13 16
1 0 1 1 0 0 1 1 1 1 1 3 3 3 1 1 3 4 5 6 8 7 6 6 5 5 5 3 4 5 9 5 8 7 5 2 6 7 2 3 3 2 10
0 0 1 2 1 0 0 1 1 1 2 2 2 2 3 1 1 1 1 2 3 5 6 6 4 4 4 3 2 2 3 6 7 7 6 3 3 3 4 4 5 9 4
2 0 1 1 1 2 1 1 1 1 1 2 1 2 1 1 1 1 1 1 1 3 3 3 3 2 1 3 5 4 3 3 3 3 1 2 3 3 4 3 2 3 2
1 1 1 1 1 0 1 0 0 0 0 1 1 1 1 0 1 1 1 0 0 1 1 2 2 1 0 1 2 3 2 2 2 3 3 3 2 0 0 0 0 1 1
0 1 0 0 0 1 1 1 0 0 0 0 0 1 1 1 0 0 1 1 0 0 0 0 0 0 0 0 0 1 1 1 0 0 0 1 1 0 0 0 0 0 0
0 0 0 0 0 0 0 0 0 0 0 0 0 0 0 0 0 0 0 0 0 0 0 0 0 0 0 0 1 0 0 0 1 1 0 0 0 0 0 0 0 0 0
0 0 0 0 0 0 0 0 0 0 0 0 0 0 0 0 0 0 0 0 1 1 1 0 0 0 0 0 1 1 1 1 0 0 0 0 0 0 0 0 0 0 0

GFSMW_con_mlcape_105.txt.gz
CAPE
0 0 0 0 0 0 0 0 0 667 1753 2210 1916 1730 1631 1475 1348 1305 1136 987 1038 1035 948 605 441 389 395 366 358 330 280 145 50 49 25 16 15 27 38 37 8 4 1
0 0 0 0 0 0 0 0 0 140 1183 1931 1949 1830 1653 1482 1404 1266 1241 1181 1053 931 957 789 549 463 418 309 354 313 214 155 59 61 17 23 4 0 8 8 10 6 0
0 0 0 0 0 0 0 0 0 19 758 1611 1956 1677 1362 1251 1183 1138 1272 1275 1148 940 908 806 747 586 537 445 385 247 158 155 103 31 27 9 0 0 1 1 1 1 0
0 0 0 0 0 0 0 0 0 9 672 1615 1582 1350 932 818 1363 1292 1303 1375 1188 1060 911 692 665 608 548 443 309 233 151 132 91 50 10 0 0 0 0 1 0 1 0
0 1 1 0 0 0 0 0 0 0 607 1466 1585 1265 1244 1013 1082 1145 1196 1232 1110 969 925 792 631 538 471 428 296 202 137 95 68 32 18 2 0 0 0 1 2 1 0
1 2 2 1 1 0 0 9 124 32 758 1466 1606 1357 1135 1120 1134 1066 1015 904 786 868 797 735 584 594 559 429 310 218 127 85 31 20 9 7 1 0 0 1 1 0 0
1 2 3 4 3 1 0 0 738 1448 1580 1719 1595 1493 1339 1046 1046 1030 1002 843 651 568 579 487 472 490 487 428 356 222 133 87 12 17 12 2 0 0 0 0 1 1 0
0 3 4 4 4 6 3 2 4 379 1943 1772 1682 1499 1272 991 944 803 819 610 553 574 447 343 388 438 408 386 328 242 149 86 42 14 16 1 0 0 0 0 0 0 0
0 2 2 4 5 7 6 6 1 1 73 1593 1396 1301 989 820 865 631 466 420 363 275 300 256 284 318 345 329 244 176 123 57 51 25 10 9 0 0 0 0 0 0 0
0 1 1 3 3 5 6 5 6 2 6 247 943 894 768 614 388 361 314 291 163 66 77 140 145 154 198 165 135 115 62 28 31 26 10 8 3 0 0 0 0 0 0
4 1 1 2 2 2 5 4 7 5 5 2 56 611 477 304 298 279 199 149 66 44 83 96 70 71 72 121 125 84 75 52 34 23 9 9 5 0 0 0 0 0 0
1 1 1 2 3 4 4 4 8 11 9 6 1 241 269 283 250 139 110 61 59 21 46 40 42 18 20 27 38 51 29 9 31 40 3 5 5 1 0 0 0 0 0
1 1 2 4 4 5 6 4 5 9 9 3 2 41 112 127 101 92 57 12 0 0 0 0 0 1 0 0 0 1 12 6 9 8 6 10 2 1 1 1 0 0 0
1 2 2 3 3 4 5 6 6 6 6 3 6 0 0 61 29 21 0 0 0 0 0 0 0 0 0 0 0 2 2 1 6 11 2 23 1 0 1 1 0 0 0
2 2 3 2 3 4 4 4 4 6 6 5 10 4 7 3 3 1 0 0 0 0 1 0 0 0 0 0 0 0 1 5 7 3 4 3 1 0 0 0 0 2 1
2 2 2 2 3 4 3 3 5 5 3 3 6 7 9 5 3 0 0 0 0 0 0 0 0 0 0 1 0 0 0 0 12 2 5 9 3 0 0 0 0 0 0
2 1 1 2 2 2 3 3 3 2 5 5 5 4 5 8 10 8 8 5 3 1 1 3 4 3 3 3 0 0 0 0 0 0 0 0 0 0 0 0 0 0 0
1 0 1 1 1 2 2 1 1 2 3 5 5 4 4 2 4 5 8 9 8 9 8 6 8 7 9 7 4 1 0 1 1 1 1 0 1 0 0 0 0 2 4
1 1 1 1 1 1 1 2 1 2 3 4 3 3 4 4 0 4 5 2 5 7 8 8 9 9 10 4 1 1 3 3 4 6 4 3 2 4 1 0 0 9 15
1 1 1 2 1 0 0 2 3 3 4 4 3 3 3 3 5 2 0 2 2 3 4 6 4 5 7 4 2 3 6 5 9 9 3 6 7 6 6 1 2 3 8
1 0 2 4 2 1 0 2 2 3 3 3 3 2 2 1 2 3 2 1 0 0 1 3 3 3 3 5 6 4 5 9 10 7 7 3 2 3 2 3 3 4 1
1 0 0 2 2 1 2 1 2 1 1 1 1 3 2 2 1 1 1 1 1 0 0 0 2 1 1 3 5 6 4 3 7 7 3 2 5 6 5 5 4 1 1
0 0 0 0 1 2 2 1 0 1 0 0 0 2 1 2 1 1 1 0 0 0 0 0 1 1 0 0 2 4 4 4 3 2 3 3 3 1 1 1 1 1 1
0 0 0 0 0 0 0 1 0 0 1 1 0 1 2 1 1 1 0 1 0 0 0 0 0 0 0 0 1 1 1 2 2 2 2 2 2 0 1 0 0 0 0
0 0 0 0 0 0 0 0 0 0 0 1 1 0 0 0 0 0 1 0 0 0 0 0 0 0 0 1 1 0 0 0 0 0 0 0 0 1 0 0 0 0 0
0 0 0 0 0 0 0 0 0 0 0 0 0 0 0 0 0 0 0 0 1 1 1 1 0 0 1 1 1 2 2 2 1 0 0 0 0 0 0 0 0 0 0

GFSMW_con_mlcape_108.txt.gz
CAPE
0 0 0 0 0 0 0 0 0 0 228 1143 1591 1640 1425 1299 1069 899 833 953 885 940 872 810 620 382 316 198 183 171 212 165 122 155 74 40 56 52 25 56 41 26 15
0 0 0 0 0 0 0 0 0 0 4 898 1621 1618 1624 1527 1343 1141 981 897 874 797 881 792 617 423 341 287 204 201 178 143 58 91 55 44 24 7 32 42 26 26 4
0 0 0 0 0 0 0 0 0 0 0 727 1799 1777 1755 1504 1236 1173 1171 1109 949 843 832 728 662 487 334 398 334 294 232 194 65 64 77 20 8 0 1 22 24 22 2
0 0 0 0 0 0 0 0 0 0 0 754 1403 1544 1521 1385 1180 1197 1303 1196 1004 923 860 793 646 498 452 430 372 314 254 152 97 47 51 5 0 0 0 1 2 2 1
1 0 0 0 0 0 0 0 0 0 0 755 1360 1532 1592 1390 1055 1227 1198 1170 1045 947 951 848 773 660 602 475 407 284 251 165 117 69 78 21 4 0 0 0 0 1 1
1 2 1 0 0 0 0 0 0 114 0 700 1421 1529 1464 1273 1133 1164 1089 1101 1152 998 890 839 844 766 686 544 400 327 233 191 129 89 34 17 13 0 1 1 0 2 1
4 4 3 2 2 3 3 4 1 93 187 889 1644 1781 1493 1304 1025 1120 1124 1124 1085 1036 886 791 791 696 684 560 406 316 277 234 173 102 81 28 11 5 0 3 1 0 1
3 4 2 3 4 4 5 6 6 1 6 1505 1623 1722 1532 1316 1149 1061 961 934 747 875 707 706 623 676 642 580 393 370 349 290 234 150 68 43 16 7 0 0 0 0 0
3 4 3 3 4 4 5 5 7 4 5 75 1670 1647 1375 1195 1126 972 986 833 647 555 488 473 530 506 458 374 349 358 336 310 261 160 76 55 28 8 1 0 0 1 0
1 1 3 3 2 2 5 4 5 7 6 5 68 1364 1077 863 824 769 880 701 544 442 433 320 305 373 288 287 317 332 325 271 208 153 77 43 27 9 0 0 0 0 0
1 1 2 1 0 2 4 6 6 7 9 6 2 549 917 685 543 658 569 381 238 260 292 270 216 175 119 136 175 215 184 83 108 81 53 26 17 11 0 0 0 0 0
0 0 1 1 1 3 3 3 6 7 6 8 5 205 359 391 410 392 288 191 147 117 121 47 52 65 38 28 27 52 102 77 63 35 38 21 18 6 1 0 1 0 0
1 1 1 1 2 3 4 4 4 5 6 6 9 2 1 170 241 142 77 75 65 54 48 45 31 5 2 4 3 3 1 6 39 28 35 9 12 13 1 1 1 0 0
1 1 1 1 2 2 3 4 4 3 6 4 11 8 3 0 23 5 14 12 2 5 3 0 0 0 0 0 0 0 0 1 2 1 8 17 20 13 1 1 1 0 1
1 2 2 2 2 3 3 3 3 3 4 6 7 9 9 9 1 0 1 0 0 0 1 0 0 0 0 0 0 0 0 0 0 0 4 2 5 4 10 1 1 1 1
2 2 1 1 1 2 2 3 2 3 3 4 5 5 1 7 14 8 8 1 1 2 1 0 0 0 1 3 0 0 0 0 0 0 0 3 0 0 0 2 0 0 1
2 1 0 1 0 1 2 3 2 2 3 5 4 4 1 1 4 7 8 11 10 5 5 8 5 8 6 5 3 0 0 0 0 2 0 0 0 1 0 0 0 0 0
0 1 0 0 0 0 1 1 1 1 2 5 5 3 1 1 5 2 4 8 7 8 7 6 6 6 7 5 3 1 4 4 5 5 3 1 1 4 2 1 0 6 4
1 0 0 1 1 1 1 1 2 3 2 3 3 3 3 3 3 5 5 2 1 4 4 4 5 7 6 5 4 2 5 5 7 8 10 6 0 0 8 3 1 6 11
1 0 1 1 2 2 0 1 2 2 4 3 2 1 2 3 3 3 3 2 3 3 1 2 1 3 4 2 5 3 5 7 9 6 5 4 3 2 2 1 3 0 9
0 0 1 1 2 1 1 2 2 2 2 2 3 2 2 1 1 2 1 2 1 2 2 2 0 1 1 2 4 4 5 7 7 9 8 4 3 3 3 3 8 12 2
0 0 0 1 2 2 1 2 3 0 0 0 1 2 2 2 2 2 1 2 1 0 1 1 1 1 1 2 3 3 3 3 5 5 2 2 6 8 5 5 4 2 1
0 0 0 0 0 1 2 2 1 0 1 0 0 0 0 1 1 2 2 2 1 2 3 2 1 1 1 1 0 1 1 2 2 1 3 4 5 5 4 3 1 0 2
0 0 0 0 0 0 0 0 1 0 1 2 1 0 0 0 1 1 0 1 1 1 2 2 2 1 1 1 0 0 0 0 0 0 0 1 2 1 1 1 1 1 1
0 0 0 0 0 0 0 0 0 0 0 0 0 0 0 0 0 0 1 0 0 0 1 1 1 1 0 1 2 2 0 0 1 0 0 0 0 0 0 0 0 0 0
0 0 0 0 0 0 0 0 0 0 0 0 0 0 0 0 0 0 0 0 0 0 0 1 0 0 1 1 2 2 2 2 2 0 0 0 0 0 0 0 0 0 0

GFSMW_con_mlcape_111.txt.gz
CAPE
0 0 0 0 0 0 0 0 0 0 0 689 675 1163 1117 1359 1299 1105 1067 918 900 968 966 1014 881 725 803 674 507 475 491 253 154 179 145 125 218 238 154 173 135 85 61
0 0 0 0 0 0 0 0 0 0 0 12 797 1011 1013 1367 1392 1160 1001 938 926 956 1024 923 740 712 773 576 484 477 345 264 137 190 187 176 158 155 158 128 87 61 72
1 0 0 0 0 0 0 0 0 0 0 0 361 1308 1512 1579 1341 1143 1154 1056 1072 1081 947 839 661 673 666 582 478 459 414 345 103 189 171 86 12 21 80 27 37 35 37
0 0 0 0 0 0 0 0 0 0 0 0 0 968 1141 1145 1174 1319 1516 1254 1156 1049 834 856 683 540 560 597 488 397 377 318 197 82 110 191 50 3 2 3 3 27 17
0 1 1 0 0 0 1 0 0 0 0 0 4 1043 1341 1416 1361 1599 1602 1394 1125 1045 907 863 728 541 615 606 507 411 356 419 278 119 89 92 60 1 3 9 0 1 19
0 0 0 0 1 0 1 1 2 1 0 45 54 943 1386 1473 1570 1660 1440 1377 1253 941 938 730 686 601 567 582 488 477 402 348 276 183 118 89 79 2 6 6 2 1 0
1 1 1 2 2 3 2 2 3 5 2 3 145 946 1572 1767 1706 1598 1457 1354 1071 913 839 881 697 657 632 621 611 493 415 390 305 235 195 132 131 47 3 10 25 4 1
1 1 1 2 3 4 3 3 3 6 6 6 154 1110 1387 1481 1761 1646 1521 1293 1038 929 844 763 717 700 669 594 577 565 469 371 314 256 212 184 104 66 9 13 30 8 1
3 3 2 2 2 3 2 3 3 5 6 9 5 1044 1349 1381 1471 1602 1527 1361 1183 1005 836 882 587 599 580 459 651 533 400 321 279 285 282 239 192 92 61 24 19 24 13
2 2 1 1 1 2 1 3 4 5 5 7 7 188 1603 1307 1271 1326 1425 1315 1108 786 731 674 583 484 510 481 455 442 358 276 262 278 257 247 238 131 79 62 15 11 6
1 1 1 1 0 1 1 2 3 6 6 5 8 65 1250 1164 1028 1025 1281 1227 863 636 478 521 652 491 377 373 434 311 245 275 275 247 249 175 180 89 53 51 28 5 3
0 1 1 0 1 1 1 2 5 6 5 5 8 7 24 852 730 716 635 618 460 346 471 401 314 272 214 228 209 132 127 153 141 127 91 39 54 59 52 29 2 3 2
0 0 0 0 0 1 1 3 2 4 5 5 7 10 6 4 404 308 232 181 201 186 130 161 176 138 103 66 32 2 2 22 31 49 48 57 56 36 17 20 3 1 0
1 1 1 1 1 1 2 1 2 3 4 4 6 10 11 9 3 10 13 22 20 12 6 10 6 0 0 0 0 0 0 0 0 0 2 1 1 25 22 18 12 1 1
1 1 1 1 2 2 2 1 2 3 1 4 5 8 7 9 10 9 5 3 2 2 0 2 2 1 1 7 1 0 0 0 0 0 1 1 4 1 2 25 17 1 1
2 1 1 1 1 1 2 2 2 2 1 2 4 3 3 3 7 10 10 13 12 11 8 10 10 4 5 8 4 3 0 0 1 1 2 5 2 0 0 0 0 20 1
2 1 1 1 1 1 1 1 1 1 2 4 3 3 2 2 0 3 3 7 7 9 10 7 7 8 7 7 3 2 3 2 4 5 4 0 3 2 0 0 0 0 0
1 2 2 2 2 1 1 1 1 1 1 1 3 2 3 5 1 1 2 1 2 2 8 7 6 8 5 5 3 3 3 4 6 9 10 9 4 5 2 2 1 5 2
1 0 1 2 2 2 1 1 2 2 1 2 2 2 1 3 2 3 2 2 2 4 5 3 3 3 4 5 4 2 4 5 6 6 6 5 3 3 2 0 3 6 9
2 2 3 3 3 2 1 2 3 1 2 3 3 2 1 2 1 0 0 0 1 2 1 3 1 2 4 5 3 2 3 7 8 4 3 4 4 1 1 4 2 0 3
1 0 2 3 3 1 1 3 2 3 2 2 2 3 2 3 1 1 1 1 0 1 1 1 1 2 2 2 2 1 2 4 5 6 6 2 3 8 7 2 2 5 1
0 0 0 0 0 2 2 2 3 2 1 0 2 2 2 2 2 2 2 2 2 3 3 2 2 2 2 3 3 4 4 0 0 5 3 2 3 3 5 4 4 1 2
0 0 0 0 0 0 1 0 1 0 0 0 0 0 2 1 1 3 3 3 2 3 4 4 4 3 1 3 2 4 3 1 2 3 4 3 3 0 2 3 2 3 3
0 0 0 0 0 0 0 0 0 0 0 0 0 0 0 1 2 1 2 1 1 3 3 4 3 2 1 1 2 2 1 2 1 1 1 1 1 1 0 0 0 1 1
0 0 0 0 0 0 0 0 0 0 0 0 0 0 0 0 0 0 0 0 0 0 1 0 0 0 0 0 0 1 2 3 3 2 0 0 0 0 1 0 0 0 0
0 0 0 0 0 0 0 0 0 0 0 0 0 0 0 0 0 0 0 0 0 0 0 0 0 1 0 0 1 1 1 2 0 0 2 2 1 0 0 0 0 0 0

GFSMW_con_mlcape_114.txt.gz
CAPE
0 0 0 0 0 0 0 0 0 0 0 0 65 521 1300 1533 1818 2004 2002 2017 2194 2159 2001 1670 1662 1254 1282 1343 1445 1451 1367 1332 1455 1129 989 935 766 718 587 573 602 639 375
0 0 0 0 0 0 0 0 0 0 0 0 0 209 690 1168 1258 1725 2200 2153 2021 1991 2016 1703 1547 1317 1217 1110 1132 1068 1020 947 912 718 638 514 549 498 559 565 546 486 358
0 0 0 0 0 0 0 0 0 0 0 0 0 0 455 826 1073 1487 2222 2378 1990 1842 1905 1674 1438 1272 1139 964 905 951 890 751 585 925 541 452 250 324 426 432 455 405 199
0 0 0 0 0 0 0 0 0 0 0 0 0 0 0 496 963 1260 1584 1816 2133 1962 1822 1644 1424 1189 1094 940 914 836 915 781 514 511 835 470 398 303 252 209 256 308 212
0 0 0 0 0 0 0 0 0 0 0 0 0 0 0 315 836 1273 1307 1497 1725 1722 1542 1474 1483 1156 1054 944 864 690 801 725 639 401 473 701 583 343 195 279 244 88 148
0 0 0 0 0 0 0 0 0 0 0 0 1 3 6 47 731 936 1423 1579 1681 1429 1365 1320 1340 1171 1081 814 860 795 767 680 660 423 706 557 459 450 248 135 70 129 106
0 0 0 0 0 0 0 0 0 1 0 2 2 3 14 189 1057 992 1531 1732 1714 1184 1292 1236 1217 1031 984 887 828 721 656 608 578 798 742 596 357 231 229 179 172 109 70
0 1 2 2 1 0 1 1 2 4 2 3 4 3 8 489 1036 1403 1439 1676 1682 1251 1084 1241 1232 1098 1028 968 868 741 654 640 665 924 809 731 499 363 375 254 266 31 10
0 1 3 2 2 1 1 2 4 3 3 2 3 6 41 989 1378 1627 1777 1801 1808 1345 1322 1213 1043 1013 928 893 823 732 616 627 780 806 869 681 670 576 482 357 204 131 58
0 2 3 5 4 1 1 1 2 2 2 2 3 6 25 841 1788 1828 1812 1760 1856 1605 1437 1219 1026 867 822 855 748 700 624 612 674 726 541 481 491 478 445 340 254 135 129
1 1 1 2 2 1 1 2 1 2 3 2 3 5 9 1412 1931 1652 1595 1728 1763 1407 1468 1474 1096 817 741 678 664 656 578 517 657 502 413 352 383 314 252 232 238 228 113
1 2 1 1 1 1 0 2 0 1 2 2 3 8 10 250 1552 1431 1437 1577 1444 1516 1233 1035 794 587 528 527 629 490 446 519 443 324 271 271 272 205 216 241 151 157 60
1 1 1 1 0 0 0 1 1 2 2 2 3 8 11 9 4 442 898 949 876 770 648 575 530 414 279 309 299 317 355 273 239 175 185 199 208 170 130 79 60 57 20
1 1 1 0 0 0 0 0 2 2 2 3 4 7 9 10 10 10 8 4 2 47 4 1 0 2 2 1 0 1 9 3 0 1 12 27 33 27 26 17 4 12 9
0 1 1 1 0 0 0 0 1 2 2 3 4 4 4 3 6 10 10 10 13 8 8 6 8 7 6 11 4 0 0 0 0 4 7 5 0 0 0 0 3 20 25
2 1 2 1 1 1 0 0 1 1 1 3 3 3 2 3 3 3 6 9 10 10 10 8 8 8 5 4 5 2 3 2 1 0 1 1 1 0 0 0 0 0 1
1 1 2 2 2 1 1 1 1 1 1 2 2 2 2 3 3 3 1 3 5 6 7 7 7 7 5 4 4 4 4 6 11 7 8 7 5 5 6 4 4 2 3
1 1 1 1 1 2 1 0 0 1 1 1 1 1 2 2 2 3 3 2 1 4 5 5 5 7 4 3 5 6 5 6 7 7 7 10 11 8 4 7 4 4 4
2 2 1 1 1 2 1 0 0 0 2 3 3 1 1 1 1 1 1 1 1 3 3 4 3 4 3 4 3 0 3 7 7 5 5 6 8 6 2 5 4 3 4
1 1 0 0 1 0 0 3 2 4 5 3 2 2 2 1 2 1 0 0 0 1 1 1 0 2 2 4 4 2 0 0 3 2 4 5 5 8 6 4 5 3 6
0 0 0 0 1 0 0 0 0 2 2 2 2 2 2 2 2 2 2 1 1 1 0 1 0 0 1 2 4 4 2 4 4 1 5 4 4 5 6 5 6 6 2
0 0 0 0 0 0 0 0 0 0 0 1 2 2 1 2 2 1 1 1 1 1 2 1 1 2 2 3 2 2 3 2 2 2 1 1 4 6 5 3 1 1 2
0 0 0 0 0 0 0 0 0 0 0 0 0 0 0 0 0 0 1 1 1 1 1 1 1 1 1 2 1 0 0 2 1 2 2 2 2 3 3 4 1 0 1
0 0 0 0 0 0 0 0 0 0 0 0 0 0 0 0 0 0 0 0 0 1 0 1 0 1 1 1 1 2 2 1 1 1 1 0 0 0 1 1 1 1 1
0 0 0 0 0 0 0 0 0 0 0 0 0 0 0 0 0 0 0 0 0 0 0 0 1 0 0 1 0 0 0 0 0 1 1 0 0 0 0 0 1 0 0
0 0 0 0 0 0 0 0 0 0 0 0 0 0 0 0 0 0 0 0 0 0 0 0 0 1 1 0 0 0 0 0 0 0 0 0 1 0 0 0 0 0 0

GFSMW_con_mlcape_117.txt.gz
CAPE
0 0 0 0 0 0 0 0 0 0 0 0 0 0 936 1416 1920 2266 2414 2060 2339 2795 2558 2474 2418 2222 2092 2127 2218 2240 2026 1722 1834 1435 1481 1296 1177 1135 954 881 572 544 543
0 0 0 0 0 0 0 0 0 0 0 0 0 0 0 470 1448 1877 2138 2545 2587 2668 2906 2794 2546 2601 2015 1774 1776 1867 2087 2075 2002 1556 1258 896 924 969 940 715 556 662 558
0 0 0 0 0 0 0 0 0 0 0 0 0 0 0 0 601 1479 1810 2336 2730 2868 2947 2912 2685 2426 2268 1784 1570 1517 1646 1703 1891 1736 977 672 392 571 739 698 684 618 587
0 0 0 0 0 0 0 0 0 0 0 0 0 0 0 0 42 1144 1657 1712 2611 2851 3058 3018 2909 2496 2226 1749 1451 1368 1426 1261 1222 1416 1395 949 502 480 399 625 603 622 609
0 0 0 0 0 0 0 0 0 0 0 0 0 0 0 0 0 3 1448 1649 2071 2458 2936 2895 2921 2590 2164 1815 1548 1305 1354 1320 1098 955 1236 1386 1205 913 714 428 412 424 411
0 0 0 0 0 0 0 0 0 0 0 0 0 1 2 0 0 28 347 1336 1760 2073 2740 2747 2636 2489 2072 1818 1711 1427 1110 1263 1061 913 881 931 1019 952 704 491 480 397 360
0 0 0 0 0 0 0 0 0 0 0 0 1 1 1 4 1 0 120 1092 1527 1891 2101 2316 2148 2157 2024 1761 1698 1357 1106 1089 1004 982 742 1072 861 909 720 555 540 345 237
0 0 1 1 1 1 1 2 1 1 1 0 0 1 2 2 2 0 106 392 1537 1942 2230 1986 1777 1765 1944 1712 1503 1161 1061 961 1017 925 904 1002 1146 988 702 409 419 289 326
2 1 2 4 4 5 3 3 2 2 1 1 2 2 3 3 3 3 333 833 1299 1947 2030 1834 1478 1399 1487 1472 1258 1139 996 992 1095 957 901 1132 1237 960 760 542 399 407 274
0 2 3 3 2 1 4 5 2 2 1 1 2 2 2 3 3 80 722 1306 1494 1873 1679 1824 1433 1303 1311 1263 1111 1062 1015 906 889 923 915 997 1222 1102 809 585 585 462 380
0 1 0 1 1 2 1 1 1 1 2 2 3 2 2 3 4 280 1148 1688 1551 1411 1604 1684 1399 1213 1197 1146 1075 987 948 829 894 848 858 964 1161 893 645 423 450 450 395
1 1 1 1 1 0 0 1 1 3 2 1 2 3 2 3 3 403 1137 1498 1360 1373 1530 1432 1377 1285 1110 1050 919 855 773 858 796 803 704 759 801 691 534 359 270 245 251
0 1 1 2 1 1 1 0 1 1 2 1 1 2 4 7 11 10 8 22 800 817 598 786 493 714 768 802 814 776 700 663 588 559 457 573 433 304 241 282 179 248 169
1 2 2 1 2 1 0 0 0 0 0 1 1 2 4 6 8 8 10 9 9 14 15 12 12 10 6 3 11 365 291 300 322 339 232 217 110 60 3 7 37 72 88
1 1 1 2 2 1 1 0 0 0 0 0 2 2 2 3 4 5 5 5 7 7 7 10 9 7 8 7 3 2 2 4 3 0 0 0 1 0 0 0 1 0 0
2 1 1 1 2 1 2 2 0 0 0 1 1 1 1 2 3 4 3 4 4 4 5 8 10 11 10 5 0 2 3 2 1 1 2 0 0 0 0 0 2 0 2
1 0 2 2 2 1 0 1 0 0 0 0 0 0 0 1 2 1 3 5 4 3 4 3 4 8 5 3 6 4 6 10 13 13 10 5 6 6 3 2 0 2 3
0 1 2 1 2 0 1 0 0 0 1 1 1 1 1 1 0 0 1 1 0 1 3 3 2 5 4 5 2 3 2 1 3 7 5 10 10 6 3 5 5 5 5
1 0 0 0 0 0 0 0 0 0 1 2 2 1 1 1 0 0 0 0 0 1 1 1 2 1 5 5 5 1 3 3 4 3 4 4 5 6 1 4 6 4 3
0 0 0 0 0 0 0 0 0 0 3 2 1 2 1 1 2 1 1 0 0 0 0 0 0 1 1 3 4 1 1 1 2 2 2 2 3 5 5 4 4 3 7
0 0 0 0 0 0 0 0 0 0 1 0 0 0 1 1 1 1 1 1 1 1 1 1 0 1 1 1 2 2 0 1 2 2 1 1 2 3 4 5 6 5 4
0 0 0 0 0 0 0 0 0 0 0 0 0 0 0 0 0 0 0 0 0 0 0 0 0 0 1 2 2 4 2 1 2 2 1 1 1 2 2 3 3 2 0
0 0 0 0 0 0 0 0 0 0 0 0 0 0 0 0 0 0 0 0 0 0 0 0 0 0 0 0 0 2 1 0 1 0 0 1 0 0 1 1 0 1 1
0 0 0 0 0 0 0 0 0 0 0 0 0 0 0 0 0 0 0 0 0 0 0 1 0 0 0 1 1 0 1 0 0 0 1 0 1 1 2 0 0 2 1
0 0 0 0 0 0 0 0 0 0 0 0 0 0 0 0 0 0 0 0 0 0 0 0 0 0 0 0 1 1 0 1 0 0 0 0 0 0 0 0 0 0 0
0 0 0 0 0 0 0 0 0 0 0 0 0 0 0 0 0 0 0 0 0 0 0 0 0 0 1 0 0 0 0 0 0 0 1 0 1 0 0 0 0 0 0

GFSMW_con_mlcape_123.txt.gz
CAPE
0 0 0 0 0 0 0 0 0 0 0 0 0 0 0 0 0 0 0 898 1029 1094 1696 1623 1973 1999 1789 2082 1764 1691 1577 1610 1621 1417 1342 1116 1273 1316 1228 1033 924 824 743
0 0 0 0 0 0 0 0 0 0 0 0 0 0 0 0 0 0 0 0 95 1371 1384 1213 1284 1952 1770 1527 1959 1758 1671 1657 1664 1472 1337 1291 1370 1346 1203 1047 949 894 628
0 0 0 0 0 0 0 0 0 0 0 0 0 0 0 0 0 0 0 0 0 182 1294 1235 981 1504 1922 1640 1491 1947 1785 1652 1559 1383 1139 998 837 1085 1074 1127 974 861 634
0 0 0 0 0 0 0 0 0 0 0 0 0 0 0 0 0 0 0 0 0 0 5 1110 1313 976 1492 1948 1412 1760 1876 1547 1433 1311 1112 699 539 540 578 927 984 808 605
0 0 0 0 0 0 0 0 0 0 0 0 0 0 0 0 0 0 0 0 0 0 0 29 1056 1394 1351 1777 1493 1381 1698 1510 1339 1336 1248 1024 602 466 436 418 677 721 622
0 0 0 0 0 0 0 0 0 0 0 0 0 0 0 0 0 0 0 0 0 0 0 0 28 1045 1414 1444 1587 1547 1250 1228 1052 1264 1324 1296 1082 737 600 519 630 617 598
0 0 0 0 0 0 0 0 0 0 0 0 0 0 0 0 1 0 0 0 0 0 0 0 0 215 1082 1417 1556 1415 869 461 497 903 1402 1312 1259 1038 764 606 494 400 414
0 0 0 0 0 0 0 1 1 1 0 0 0 0 1 1 1 0 1 1 1 1 1 0 0 1 404 1126 1218 1179 883 153 2 279 838 1007 1149 1061 1022 869 537 298 257
0 1 0 0 0 0 1 2 2 1 1 0 1 1 1 1 1 1 1 1 0 1 0 1 0 0 85 606 928 1044 867 583 105 69 129 698 740 796 771 895 714 476 141
0 0 0 0 0 0 1 5 0 1 0 0 1 1 1 1 1 1 1 0 0 0 0 1 0 0 4 400 733 727 661 593 669 618 654 647 590 589 657 741 733 461 290
0 1 0 0 0 0 1 1 0 1 1 1 0 1 1 2 2 2 2 1 1 0 0 1 2 0 4 646 655 674 518 479 828 806 768 687 598 495 607 721 754 567 424
1 1 1 1 0 1 0 1 0 1 0 0 0 0 1 1 2 3 3 2 4 3 2 1 0 1 0 18 241 66 28 0 119 869 916 663 651 597 610 590 635 512 359
1 1 1 0 0 0 0 1 0 0 0 0 0 0 1 1 1 2 2 2 3 3 4 6 7 7 5 0 0 0 0 430 810 1069 883 819 713 709 588 587 456 397 297
1 1 0 0 1 1 0 1 0 0 0 0 0 0 0 1 1 2 1 1 1 2 3 4 6 7 8 8 1 0 258 319 412 274 336 51 138 333 523 608 534 277 246
0 1 1 0 0 0 0 0 0 0 0 0 0 0 0 0 0 1 1 0 1 2 1 3 3 3 4 5 5 10 8 5 9 10 17 13 12 11 5 2 0 15 13
0 0 0 0 0 0 0 0 0 0 0 0 1 0 0 0 0 0 0 0 1 0 0 3 2 2 4 2 1 2 2 4 6 8 5 7 4 6 2 1 3 2 1
0 0 0 0 0 0 0 0 0 0 0 0 0 0 0 0 0 0 0 0 2 0 2 1 2 3 3 3 2 1 0 3 5 3 6 3 4 1 4 4 4 4 4
0 0 0 0 0 0 0 0 0 0 0 0 0 0 0 1 0 0 1 0 0 0 0 0 0 1 0 2 2 1 1 1 3 3 3 4 4 2 3 0 0 2 3
0 0 0 0 0 0 0 0 0 0 0 0 0 0 0 0 0 0 0 0 0 1 1 0 0 1 0 3 1 1 1 1 1 1 1 2 2 5 2 0 1 3 1
0 0 0 0 0 0 0 0 0 0 0 0 0 0 0 0 0 0 0 0 0 0 0 0 0 0 1 3 3 1 0 1 0 0 1 1 1 1 1 1 0 0 2
0 0 0 0 0 0 0 0 0 0 0 0 0 0 0 0 0 0 0 0 0 0 0 0 0 0 0 0 1 2 0 1 1 1 0 1 1 1 1 1 0 1 0
0 0 0 0 0 0 0 0 0 0 0 0 0 0 0 0 0 0 0 0 0 0 0 0 0 0 0 0 0 0 1 1 1 0 0 0 1 2 0 0 1 0 1
0 0 0 0 0 0 0 0 0 0 0 0 0 0 0 0 0 0 0 0 0 0 0 0 0 0 0 0 0 0 0 0 0 0 0 0 0 0 0 0 0 0 1
0 0 0 0 0 0 0 0 0 0 0 0 0 0 0 0 0 0 0 0 0 0 0 0 0 0 0 0 0 0 0 0 0 0 0 0 0 0 0 0 0 0 0
0 0 0 0 0 0 0 0 0 0 0 0 0 0 0 0 0 0 0 0 0 0 0 0 0 0 0 0 1 0 0 0 0 0 0 0 0 0 0 0 0 0 0
0 0 0 0 0 0 0 0 0 0 0 0 0 0 0 0 0 0 0 1 0 1 0 0 0 0 0 0 0 0 0 0 0 0 0 0 0 0 0 0 0 0 0

GFSMW_con_mlcape_126.txt.gz
CAPE
0 0 0 0 0 0 0 0 0 0 0 0 0 0 0 0 0 0 0 0 0 0 0 241 5 59 982 1122 1376 1410 1406 1338 1280 1184 965 878 727 844 940 871 796 842 701
0 0 0 0 0 0 0 0 0 0 0 0 0 0 0 0 0 0 0 0 0 0 0 0 389 6 732 796 1050 1142 1180 1259 1029 1140 1075 942 929 834 885 945 876 799 756
0 0 0 0 0 0 0 0 0 0 0 0 0 0 0 0 0 0 0 0 0 0 0 0 0 239 1 19 727 1045 957 664 852 854 858 802 753 782 786 901 915 806 715
0 0 0 0 0 0 0 0 0 0 0 0 0 0 0 0 0 0 0 0 0 0 0 0 0 0 342 460 651 817 878 839 673 717 695 440 425 570 584 732 895 830 778
0 0 0 0 0 0 0 0 0 0 0 0 0 0 0 0 0 0 0 0 0 0 0 0 0 0 0 298 380 574 690 854 828 729 488 397 274 264 214 229 747 754 728
0 0 0 0 0 0 0 0 0 0 0 0 0 0 0 0 0 0 0 0 0 0 0 0 0 0 0 0 189 570 790 691 663 768 725 482 338 336 256 126 391 434 630
0 0 0 0 0 0 0 0 1 0 0 0 0 0 0 0 1 1 0 0 0 0 0 0 0 0 0 0 0 275 519 453 434 253 332 466 431 422 330 234 299 325 281
0 0 0 0 1 1 0 0 0 0 0 0 0 0 1 1 1 1 1 1 0 0 0 0 0 0 0 0 0 0 369 463 401 326 4 47 31 155 450 426 344 333 318
0 0 0 1 1 0 0 3 1 1 0 0 1 1 1 2 1 0 0 1 1 0 0 0 0 1 0 0 0 0 48 471 279 140 30 0 0 12 309 473 365 373 148
0 0 1 1 1 1 1 2 0 1 0 1 3 1 2 1 1 2 1 2 3 5 1 1 0 1 1 2 0 0 19 258 151 44 0 0 0 0 71 273 548 304 271
0 0 0 0 0 0 0 0 0 0 1 1 2 1 1 1 1 1 2 2 2 2 1 1 2 1 1 1 1 0 14 316 280 92 5 0 0 9 3 0 147 407 303
0 0 1 0 1 2 0 1 1 1 1 1 1 1 1 1 0 1 1 2 2 3 3 3 4 5 2 1 0 0 25 460 465 430 406 290 269 108 6 0 8 358 246
0 1 1 1 1 1 1 0 0 1 1 1 1 0 0 1 0 1 1 2 2 2 2 3 5 7 6 5 1 1 1 0 25 37 111 38 0 0 363 353 471 390 305
1 2 0 0 0 0 0 0 0 0 1 1 1 0 0 0 0 1 1 1 1 1 1 2 2 3 3 4 6 4 5 6 4 11 6 4 3 0 296 348 435 383 324
1 0 0 0 0 0 0 0 0 0 0 1 0 0 0 0 0 0 0 0 1 1 1 1 1 1 2 3 4 6 8 9 7 7 6 6 6 10 9 125 53 249 317
0 0 0 0 0 0 0 0 0 0 0 0 0 1 1 0 0 0 1 0 0 0 0 0 0 0 1 3 3 2 4 0 4 6 5 2 0 4 4 5 8 14 0
0 0 0 0 0 0 0 0 0 0 0 0 0 0 0 0 1 0 0 1 1 0 0 0 0 0 0 3 3 2 2 4 3 5 6 5 3 1 1 0 1 2 5
0 0 0 0 0 0 0 0 0 0 0 0 0 0 0 0 0 0 0 0 0 1 1 0 0 0 0 1 1 0 0 0 0 0 1 3 5 3 1 0 0 0 2
0 0 0 0 0 0 0 0 0 0 0 0 0 0 0 0 0 0 0 0 0 0 0 0 0 0 0 2 2 0 0 0 0 0 1 1 1 3 4 0 0 1 1
0 0 0 0 0 0 0 0 0 0 0 0 0 0 0 0 0 0 0 0 0 0 0 0 0 1 0 3 1 0 0 1 1 0 0 2 2 3 3 2 2 1 2
0 0 0 0 0 0 0 0 0 0 0 0 0 0 0 0 0 0 0 0 0 0 0 0 0 0 0 1 3 1 0 0 0 1 0 0 1 0 1 1 1 1 0
0 0 0 0 0 0 0 0 0 0 0 0 0 0 0 0 0 0 0 0 0 0 0 0 0 0 0 0 0 0 0 0 0 0 0 0 0 0 0 0 0 0 0
0 0 0 0 0 0 0 0 0 0 0 0 0 0 0 0 0 0 0 0 0 0 0 0 0 0 0 1 0 0 0 0 0 0 0 0 0 0 0 0 0 0 0
0 0 0 0 0 0 0 0 0 0 0 0 0 0 0 0 0 0 0 0 0 0 0 0 0 0 0 0 0 0 0 0 0 0 0 0 0 0 0 0 0 0 1
0 0 0 0 0 0 0 0 0 0 0 0 0 0 0 0 0 0 0 0 1 0 0 0 0 0 0 0 0 0 0 0 0 0 0 0 0 0 0 0 0 0 0
0 0 0 0 0 0 0 0 0 0 0 0 0 0 0 0 0 0 0 1 1 0 0 0 0 0 0 0 0 0 0 0 0 0 0 0 0 0 0 0 0 0 0

GFSMW_con_mlcape_129.txt.gz
CAPE
0 0 0 0 0 0 0 0 0 0 0 0 0 0 0 0 0 0 0 0 0 0 0 0 0 0 49 81 342 761 1018 906 835 729 673 645 445 498 664 621 613 510 444
0 0 0 0 0 0 0 0 0 0 0 0 0 0 0 0 0 0 0 0 0 0 0 0 0 0 1 76 89 450 545 669 829 591 779 754 731 479 587 579 667 698 548
0 0 0 0 0 0 0 0 0 0 0 0 0 0 0 0 0 0 0 0 0 0 0 0 0 0 0 7 0 61 319 442 614 691 406 365 454 660 627 629 606 608 667
0 0 0 0 0 0 0 0 0 0 0 0 0 0 0 0 0 0 0 0 0 0 0 0 0 0 0 0 5 21 49 68 219 453 380 246 207 328 348 415 720 656 618
0 0 0 0 0 0 0 0 0 0 0 0 0 0 0 0 0 0 0 0 0 0 0 0 0 0 0 0 0 10 4 12 92 249 343 336 190 182 212 218 496 578 705
0 0 0 0 0 0 0 0 0 0 1 0 0 0 0 0 0 0 1 1 0 0 0 0 0 0 0 0 1 1 24 58 159 308 344 270 275 120 140 93 157 343 634
0 0 0 1 1 0 0 0 0 0 0 0 0 0 0 0 1 1 1 1 1 1 0 0 1 0 0 0 0 0 1 4 287 374 252 239 260 246 132 126 75 135 238
0 0 0 2 1 0 0 0 0 0 0 1 1 1 2 4 2 2 2 0 1 1 0 0 0 0 1 0 0 0 0 0 5 222 353 319 329 250 137 39 127 64 106
0 0 1 1 1 0 1 0 1 1 1 1 1 1 3 4 1 2 3 1 5 7 3 4 3 1 0 0 2 0 0 0 0 0 187 251 189 162 19 13 0 11 6
0 0 2 0 2 1 0 0 0 1 1 1 1 1 1 2 1 1 1 2 2 3 1 2 2 1 0 0 1 2 0 0 0 1 91 117 127 49 0 14 6 3 80
0 0 0 0 0 0 0 0 0 1 2 1 1 1 1 1 1 1 1 1 2 2 2 2 3 2 1 2 2 0 1 1 0 0 61 88 54 46 1 0 2 34 100
0 0 0 0 0 0 0 1 1 2 1 1 1 0 1 2 0 1 1 2 2 3 2 2 3 4 6 3 2 2 1 4 10 22 59 78 58 0 0 0 3 0 1
0 0 0 0 0 0 0 0 0 1 1 0 1 0 0 0 0 0 0 2 1 1 2 1 2 4 5 4 4 4 0 0 0 0 0 0 1 1 0 0 0 0 0
0 0 0 0 0 0 0 0 0 0 0 1 1 0 0 0 0 0 0 0 1 1 1 1 1 1 2 2 3 4 7 8 8 8 9 10 6 4 2 0 130 40 0
0 0 0 0 0 0 0 0 0 0 0 0 0 1 0 0 0 0 0 1 1 1 0 1 1 1 2 3 2 2 4 5 6 6 5 5 6 6 4 0 2 1 19
0 0 0 0 0 0 0 0 0 0 0 0 0 0 0 0 0 0 1 1 1 0 1 1 0 0 0 2 4 1 2 4 5 6 5 4 2 5 4 2 0 1 0
0 0 0 0 0 0 0 0 0 0 0 0 0 0 0 0 0 0 0 0 0 0 1 1 0 0 0 2 2 2 0 1 2 3 3 4 3 2 4 6 6 6 1
0 0 0 0 0 0 0 0 0 0 0 0 0 0 0 0 0 0 0 0 0 0 0 0 0 0 1 2 2 1 0 0 0 0 1 1 2 2 3 4 4 7 5
0 0 0 0 0 0 0 0 0 0 0 0 0 0 0 0 0 0 0 0 0 0 0 0 0 0 0 1 1 1 0 0 0 0 1 0 0 3 3 3 4 3 2
0 0 0 0 0 0 0 0 0 0 0 0 0 0 0 0 0 0 0 0 0 0 0 0 0 0 0 0 0 0 0 1 1 0 0 3 1 2 1 1 1 1 3
0 0 0 0 0 0 0 0 0 0 0 0 0 0 0 0 0 0 0 0 0 0 0 0 0 0 0 0 0 0 0 0 0 0 0 0 3 1 1 0 1 1 1
0 0 0 0 0 0 0 0 0 0 0 0 0 0 0 0 0 0 0 0 0 0 0 0 0 0 1 0 0 0 0 0 0 0 0 0 0 0 0 0 0 0 1
0 0 0 0 0 0 0 0 0 0 0 0 0 0 0 0 0 0 0 0 0 0 0 0 0 0 0 0 0 0 0 0 0 0 0 0 0 0 0 0 0 0 1
0 0 0 0 0 0 0 0 0 0 0 0 0 0 0 0 0 0 0 0 0 0 0 0 0 0 0 0 0 0 0 0 0 0 0 0 0 0 0 0 0 0 0
0 0 0 0 0 0 0 0 0 0 0 0 0 0 0 0 0 0 0 0 0 0 0 0 0 0 0 0 0 0 0 0 0 0 0 0 0 0 0 0 0 0 0
0 0 0 0 0 0 0 0 0 0 0 0 0 0 0 0 0 0 0 0 0 0 0 0 0 0 0 0 0 0 0 0 0 0 0 0 0 0 0 0 0 0 0

GFSMW_con_mlcape_132.txt.gz
CAPE
0 0 0 0 0 0 0 0 0 0 0 0 0 0 0 0 0 0 0 0 0 0 0 0 0 0 0 0 1 0 67 58 272 335 346 277 256 254 348 275 410 339 347
0 0 0 0 0 0 0 0 0 0 0 0 0 0 0 0 0 0 0 0 0 0 0 0 0 0 0 0 0 0 0 0 26 364 295 254 287 213 286 309 270 473 315
0 0 0 0 0 0 0 0 0 0 0 0 0 0 0 0 0 0 0 0 0 0 0 0 0 0 0 0 0 1 16 0 42 46 281 143 110 332 325 342 279 413 382
0 0 0 0 0 0 0 0 0 0 0 0 0 0 1 2 0 0 0 0 0 0 0 0 0 0 0 0 0 0 39 57 0 37 139 332 48 88 133 255 376 349 441
0 0 0 0 0 0 0 0 0 0 0 0 0 0 0 0 0 0 0 0 1 0 0 0 0 0 1 0 0 0 0 1 1 4 45 57 7 29 162 77 214 310 418
0 0 0 0 0 0 0 0 0 0 0 1 1 0 0 0 0 0 0 1 0 0 0 0 0 0 0 0 1 3 0 4 1 0 0 9 0 3 112 89 23 89 264
0 0 0 0 1 0 0 0 0 1 0 0 1 1 1 1 4 3 2 1 2 1 0 0 0 0 0 0 0 0 0 0 3 2 0 8 70 43 90 100 35 42 76
0 0 0 0 0 0 0 0 1 2 0 0 0 0 1 1 3 4 2 2 2 1 4 2 1 0 0 0 0 1 0 0 0 1 3 12 13 144 124 149 129 65 26
0 0 0 0 0 0 0 1 2 1 0 0 1 0 1 1 1 1 2 2 2 5 5 1 2 5 4 2 1 2 1 1 0 1 0 0 24 62 106 49 74 25 2
0 0 0 0 0 0 0 0 1 3 1 0 0 1 1 2 1 1 0 0 2 2 2 2 2 1 1 1 2 1 0 2 0 0 0 1 12 132 177 156 77 6 0
0 0 0 0 0 0 0 0 1 2 2 1 0 1 0 1 1 0 1 1 1 2 1 2 2 3 3 2 1 1 0 1 2 2 1 0 4 100 119 126 64 1 1
0 0 0 0 0 0 0 0 0 0 1 0 0 0 0 1 0 0 1 1 1 1 2 3 2 2 2 2 4 3 2 3 2 1 1 6 38 32 54 3 38 4 0
0 0 0 0 0 0 0 0 0 0 0 0 1 0 0 0 0 0 0 1 1 1 2 2 2 2 2 2 2 3 6 7 7 6 4 4 1 0 9 17 0 0 1
0 0 0 0 0 0 0 0 0 0 0 0 0 0 0 0 0 0 0 1 1 1 1 1 1 1 1 2 2 3 3 3 4 4 5 9 9 10 4 3 0 15 20
0 0 0 0 0 0 0 0 0 0 0 0 0 0 0 0 0 0 0 0 0 0 0 0 1 1 2 3 2 1 3 3 3 2 2 3 4 6 7 12 12 3 1
0 0 0 0 0 0 0 0 0 0 0 0 0 0 0 0 0 0 0 0 0 0 0 0 0 0 1 4 3 2 2 1 3 3 2 1 3 3 4 6 6 9 9
0 0 0 0 0 0 0 0 0 0 0 0 0 0 0 0 0 0 0 0 0 0 0 0 0 0 0 3 1 1 0 0 0 1 2 3 3 2 2 3 3 4 4
0 0 0 0 0 0 0 0 0 0 0 0 0 0 0 0 0 0 0 0 0 0 0 0 0 0 0 0 0 0 1 1 0 0 0 0 1 2 1 1 1 2 1
0 0 0 0 0 0 0 0 0 0 0 0 0 0 0 0 0 0 0 0 0 0 0 0 0 0 0 0 0 0 0 0 0 0 0 0 0 2 3 1 1 1 1
0 0 0 0 0 0 0 0 0 0 0 0 0 0 0 0 0 0 0 0 0 0 0 0 0 0 0 0 0 0 0 0 0 0 0 3 2 1 0 1 0 0 0
0 0 0 0 0 0 0 0 0 0 0 0 0 0 0 0 0 0 0 0 0 0 0 0 0 0 0 0 0 0 0 0 0 0 0 0 0 0 0 0 1 1 0
0 0 0 0 0 0 0 0 0 0 0 0 0 0 0 0 0 0 0 0 0 0 0 0 0 0 0 0 0 0 0 0 0 0 0 0 0 0 0 0 0 0 0
0 0 0 0 0 0 0 0 0 0 0 0 0 0 0 0 0 0 0 0 0 0 0 0 0 0 0 0 0 0 0 0 0 0 0 0 0 0 0 0 0 0 0
0 0 0 0 0 0 0 0 0 0 0 0 0 0 0 0 0 0 0 0 0 0 0 0 0 0 0 0 0 0 0 0 0 0 0 0 0 0 0 0 0 0 0
0 0 0 0 0 0 0 0 0 0 0 0 0 0 0 0 0 0 0 0 0 0 0 0 0 0 0 0 0 0 0 0 0 0 0 0 0 0 0 0 0 0 0
0 0 0 0 0 0 0 0 0 0 0 0 0 0 0 0 0 0 0 0 0 0 0 0 0 0 0 0 0 0 0 0 0 0 0 0 0 0 0 0 0 0 0

GFSMW_con_mlcape_135.txt.gz
CAPE
0 0 0 0 0 0 0 0 0 0 0 0 0 0 0 0 0 0 0 0 0 0 0 0 0 0 0 0 0 1 0 0 1 36 234 564 451 391 296 324 541 644 482
0 0 0 0 0 0 0 0 0 0 0 0 0 0 0 0 0 0 0 0 0 0 0 0 0 0 0 0 0 0 18 24 41 177 162 57 207 231 261 279 408 589 718
0 0 0 0 0 0 0 0 0 0 0 0 0 0 0 0 0 0 0 0 0 0 0 0 0 0 0 0 0 0 0 13 45 12 1 11 0 61 218 232 283 375 610
0 0 0 0 0 0 0 0 0 0 0 0 0 0 0 0 0 0 0 1 1 1 1 0 0 0 0 0 0 0 0 1 2 141 7 0 0 5 3 210 336 397 625
0 0 0 0 0 0 0 0 0 0 0 0 1 0 0 0 0 0 0 0 0 0 0 0 3 2 1 2 0 0 1 0 1 7 76 7 0 0 8 53 168 420 543
0 0 0 0 0 0 0 0 0 0 0 1 1 1 1 2 4 2 1 0 2 2 2 1 0 6 4 2 3 2 0 0 0 0 17 11 17 11 1 4 27 108 217
0 0 0 0 0 0 0 0 0 0 0 0 1 1 1 3 1 4 1 2 2 1 1 4 7 4 3 2 1 0 1 1 2 3 0 22 22 18 10 12 4 48 53
0 0 0 0 0 0 0 0 0 0 0 0 1 1 2 2 5 5 4 3 2 2 4 2 2 3 5 4 3 3 2 2 5 3 1 1 21 15 18 52 72 36 85
0 0 0 0 0 0 0 0 1 0 0 0 0 1 3 5 5 4 3 3 2 1 2 2 3 2 1 4 5 3 1 2 3 1 3 3 0 44 29 66 93 78 34
0 0 0 0 0 0 0 0 0 1 0 0 1 1 4 3 3 2 1 2 1 1 1 2 3 3 3 2 2 2 2 2 2 1 3 0 0 1 75 49 49 66 51
0 0 0 0 0 0 0 0 0 1 1 0 0 0 1 1 1 1 1 1 1 1 1 1 2 2 2 2 3 2 2 2 2 1 1 6 0 0 4 83 115 73 23
0 0 0 0 0 0 0 0 0 0 0 0 0 1 1 1 1 1 1 0 1 1 1 2 1 1 2 2 3 4 4 5 6 7 8 7 2 1 8 12 60 173 182
0 0 0 0 0 0 0 0 0 0 0 0 0 1 2 1 1 1 1 1 1 1 0 1 1 1 1 2 2 2 4 4 4 5 7 9 9 6 8 3 0 5 200
0 0 0 0 0 0 0 0 0 0 0 0 0 0 0 0 1 2 1 0 1 1 1 0 1 1 1 1 1 1 2 2 2 2 2 3 6 10 10 14 10 5 1
0 0 0 0 0 0 0 0 0 0 0 0 0 0 0 0 0 0 0 1 1 1 1 2 1 2 3 2 1 0 1 2 4 2 2 2 5 5 4 8 11 13 7
0 0 0 0 0 0 0 0 0 0 0 0 0 0 0 0 0 0 0 0 0 2 1 2 1 1 2 3 1 1 0 0 1 2 1 2 2 2 3 2 3 3 11
0 0 0 0 0 0 0 0 0 0 0 0 0 0 0 0 0 0 0 0 0 0 1 1 0 0 0 0 0 0 2 1 1 1 0 1 1 2 2 1 2 2 3
0 0 0 0 0 0 0 0 0 0 0 0 0 0 0 0 0 0 0 0 0 0 0 0 1 1 0 0 0 0 1 1 1 3 2 2 2 0 3 1 0 1 3
0 0 0 0 0 0 0 0 0 0 0 0 0 0 0 0 0 0 0 0 0 0 0 1 0 0 0 0 0 0 0 0 0 2 1 2 2 0 0 0 0 3 1
0 0 0 0 0 0 0 0 0 0 0 0 0 0 0 0 0 0 0 0 0 0 0 0 0 0 0 0 0 0 0 0 0 0 1 0 0 0 0 0 0 0 1
0 0 0 0 0 0 0 0 0 0 0 0 0 0 0 0 0 0 0 0 0 0 0 0 0 0 0 0 0 0 0 0 0 0 0 0 0 0 0 0 0 0 0
0 0 0 0 0 0 0 0 0 0 0 0 0 0 0 0 0 0 0 0 0 0 0 0 0 0 0 0 0 0 0 0 0 0 0 0 0 0 0 0 0 0 0
0 0 0 0 0 0 0 0 0 0 0 0 0 0 0 0 0 0 0 0 0 0 0 0 0 0 0 0 0 0 0 0 0 0 0 0 0 0 0 0 0 0 0
0 0 0 0 0 0 0 0 0 0 0 0 0 0 0 0 0 0 0 0 0 0 0 0 0 0 0 0 0 0 0 0 0 0 0 0 0 0 0 0 0 0 0
0 0 0 0 0 0 0 0 0 0 0 0 0 0 0 0 0 0 0 0 0 0 0 0 0 0 0 0 0 0 0 0 0 0 0 0 0 0 0 0 0 0 0
0 0 0 0 0 0 0 0 0 0 0 0 0 0 0 0 0 0 0 0 0 0 0 0 0 0 0 0 0 0 0 0 0 0 0 0 0 0 0 0 0 0 0

GFSMW_con_mlcape_138.txt.gz
CAPE
0 0 0 0 0 0 0 0 0 0 0 0 0 0 0 0 0 0 0 0 0 0 0 0 0 0 0 0 0 0 0 7 37 1 0 0 23 488 668 828 965 958 943
0 0 0 0 0 0 0 0 0 0 0 0 0 0 0 0 0 0 0 0 0 0 0 0 0 0 0 0 0 0 0 0 25 38 208 82 4 298 550 844 902 870 964
0 0 0 0 0 0 0 0 0 0 0 0 0 0 0 0 0 0 0 0 0 0 1 0 0 0 0 0 0 0 0 0 0 221 91 38 9 9 157 652 647 788 886
0 0 0 0 0 0 0 0 0 0 0 0 0 0 0 0 0 0 0 0 0 1 3 2 0 1 2 1 0 0 0 0 0 5 229 328 194 32 44 371 729 720 776
0 0 0 0 0 0 0 0 0 0 0 0 0 0 0 0 0 0 0 2 0 1 0 1 1 0 5 0 0 1 6 2 0 0 7 283 289 253 313 166 321 609 571
0 0 0 0 0 0 0 0 0 0 0 0 0 0 0 0 0 0 1 0 0 3 6 6 8 6 4 4 5 1 5 3 4 0 2 21 21 180 268 121 213 397 510
0 0 0 0 0 0 0 0 0 0 0 0 0 0 1 1 3 5 5 7 7 3 9 7 7 4 4 4 5 8 7 3 1 2 3 6 3 3 218 296 177 122 154
0 0 0 0 0 0 0 0 0 0 0 0 0 0 2 2 7 7 5 9 9 5 6 6 8 7 7 10 5 4 2 3 4 1 2 2 3 1 2 283 229 171 62
0 0 0 0 0 0 0 0 0 0 0 0 0 0 1 5 5 8 8 9 10 11 2 3 4 4 4 5 5 2 2 3 1 0 3 7 11 11 6 26 160 264 66
0 0 0 0 0 0 0 0 0 0 0 0 0 0 3 6 5 6 7 6 5 6 3 1 1 1 3 3 2 2 1 3 1 1 1 10 7 7 2 0 112 87 56
0 0 0 0 0 0 0 0 0 0 0 0 0 1 2 2 2 2 5 7 7 3 2 2 2 1 1 2 2 3 1 2 3 2 4 0 0 10 20 3 0 84 209
0 0 0 0 0 0 0 0 0 0 0 0 0 1 2 2 2 2 2 3 3 3 2 2 1 1 1 2 1 2 2 4 7 6 7 9 4 0 4 3 1 0 1
0 0 0 0 0 0 0 0 0 0 0 0 0 0 0 0 1 3 3 1 1 2 2 1 0 0 1 0 1 1 2 2 2 2 3 5 8 11 7 7 5 4 3
0 0 0 0 0 0 0 0 0 0 0 0 0 0 0 1 2 2 1 0 0 0 1 1 2 1 1 1 1 1 1 1 1 1 2 2 3 7 9 12 13 8 0
0 0 0 0 0 0 0 0 0 0 0 0 0 0 0 0 0 0 0 0 0 0 1 0 0 1 2 1 1 1 1 1 0 0 1 2 5 6 4 5 10 6 11
0 0 0 0 0 0 0 0 0 0 0 0 0 0 0 0 0 0 0 0 0 0 0 1 1 0 2 0 1 1 0 1 1 4 1 1 1 1 3 3 2 3 6
0 0 0 0 0 0 0 0 0 0 0 0 0 0 0 0 0 0 0 0 0 0 0 0 0 0 0 0 0 0 1 0 1 1 1 1 2 1 1 1 2 3 2
0 0 0 0 0 0 0 0 0 0 0 0 0 0 0 0 0 0 0 0 0 0 0 0 0 0 0 0 0 0 0 0 0 1 0 0 0 1 1 0 1 2 2
0 0 0 0 0 0 0 0 0 0 0 0 0 0 0 0 0 0 0 0 0 0 0 0 0 0 0 0 0 0 0 0 0 0 0 0 0 0 0 0 0 0 0
0 0 0 0 0 0 0 0 0 0 0 0 0 0 0 0 0 0 0 0 0 0 0 0 0 0 0 0 0 0 0 0 0 0 0 0 0 0 0 0 0 0 0
0 0 0 0 0 0 0 0 0 0 0 0 0 0 0 0 0 0 0 0 0 0 0 0 0 0 0 0 0 0 0 0 0 0 0 0 0 0 0 0 0 0 0
0 0 0 0 0 0 0 0 0 0 0 0 0 0 1 2 1 0 0 0 0 0 0 0 0 0 0 0 0 0 0 0 0 0 0 0 0 0 0 0 0 0 0
0 0 0 0 0 0 0 0 0 0 0 0 0 0 0 1 2 1 0 0 0 0 0 0 0 0 0 0 0 0 0 0 0 0 0 0 0 0 0 0 0 0 0
0 0 0 0 0 0 0 0 0 0 0 0 0 0 0 1 1 0 0 0 0 0 0 0 0 0 0 0 0 0 0 0 0 0 0 0 0 0 0 0 0 0 0
0 0 0 0 0 0 0 0 0 0 0 0 0 0 0 0 0 0 0 0 0 0 0 0 0 0 0 0 0 0 0 0 0 0 0 0 0 0 0 0 0 0 0
0 0 0 0 0 0 0 0 0 0 0 0 0 0 0 0 0 0 0 0 0 0 0 0 0 1 0 0 0 0 0 0 0 0 0 0 0 0 0 0 0 0 0